Location: Caltech
(34.1382°N, 118.1253°W)
Time: 13:35:29
(UTC-08:00)

Iridium 62 - Visible Passes

Search period start: 30 January 2015 00:00
Search period end: 09 February 2015 00:00
Orbit: 776 x 779 km, 86.4° (Epoch: 29 January)

Date Brightness Start Highest point End Pass type
(mag) Time Alt. Az. Time Alt. Az. Time Alt. Az.
30 Jan 6.0 06:22:04 10° S 06:27:15 81° E 06:32:30 10° N visible
30 Jan 7.2 18:36:46 10° NNW 18:41:40 42° W 18:46:31 10° SSW visible
31 Jan 7.3 05:49:00 10° SSE 05:53:49 41° E 05:58:43 10° NNE visible
31 Jan 6.0 18:03:00 10° N 18:08:14 82° W 18:13:27 10° S visible
01 Feb 8.4 05:16:40 10° SE 05:20:27 21° E 05:24:25 10° NE visible
01 Feb 8.8 19:12:07 10° NW 19:15:01 15° W 19:17:39 10° WSW visible
02 Feb 9.1 04:46:14 10° E 04:47:10 11° E 04:48:30 10° ENE visible
02 Feb 5.8 06:22:12 10° S 06:27:22 68° W 06:32:35 10° N visible
02 Feb 8.0 18:37:16 10° NNW 18:41:42 28° W 18:46:01 10° SW visible
03 Feb 6.4 05:48:46 10° SSE 05:53:52 62° E 05:59:02 10° N visible
03 Feb 6.7 18:03:12 10° NNW 18:08:19 54° W 18:13:22 10° SSW visible
04 Feb 7.7 05:15:57 10° SE 05:20:28 32° E 05:25:05 10° NNE visible
05 Feb 8.7 04:44:04 10° ESE 04:47:07 17° E 04:50:27 10° NE visible
05 Feb 8.7 18:38:01 10° NW 18:41:42 19° W 18:45:11 10° SW visible
06 Feb 5.8 05:48:45 10° S 05:53:57 88° W 05:59:12 10° N visible
06 Feb 7.6 18:03:35 10° NNW 18:08:21 36° W 18:13:03 10° SSW visible
07 Feb 6.9 05:15:33 10° SSE 05:20:30 47° E 05:25:30 10° NNE visible
08 Feb 8.1 04:43:02 10° SE 04:47:07 25° E 04:51:20 10° NNE visible
08 Feb 9.0 18:39:22 10° NW 18:41:40 13° W 18:43:39 10° WSW visible
